[[{"header":{"parameterUnit":"m.s-1","parameterCategory":1,"la1":30.2991,"la2":30.254,"lo1":-89.0895,"lo2":-89.0444,"dy":0.0017,"dx":0.0017,"nx":28,"ny":28,"refTime":"2025-04-15T03:00:00:Z","depth":0,"parameterNumber":2,"parameterNumberName":"U-component_of_WINDS"},"data":[0,0,0,0,0,0,0,0,0,0,0,0,0,0,0,0,0,0,0,0,0,0,0,0,0,0,0,0,0,0,0,0,0,0,0,0,0,0,0,0,0,0,0,0,0,0,0,0,0,0,0,0,0,0,0,0,0,0,1.3459,1.346,0,1.3561,1.3562,1.3563,1.3601,1.3601,1.36,1.36,1.3702,1.3705,1.3708,0,0,0,0,0,0,0,0,0,0,0,0,0,1.3293,1.3295,1.3459,1.346,1.3461,1.3561,1.3562,1.3563,1.3601,1.3601,1.36,1.36,1.3701,1.3704,1.3708,0,0,0,0,0,0,0,0,0,0,0,0,0,1.3377,1.3296,1.3459,1.3492,1.3496,1.356,1.3562,1.3564,1.3601,1.3601,1.36,1.36,1.37,1.3704,1.3709,1.3746,0,0,1.3722,1.3724,0,0,0,0,0,0,0,0,1.3372,1.3383,1.3486,1.349,1.3495,1.3568,1.3541,1.3625,1.3601,1.3561,1.36,1.3599,1.3657,1.3665,1.3686,1.3751,1.3755,1.3723,1.3725,1.3727,1.3729,0,0,0,0,0,0,0,1.3366,1.3378,1.3499,1.3487,1.3493,1.3501,1.3512,1.3557,1.3611,1.3565,1.3568,1.3579,1.366,1.3681,1.3688,1.3757,1.3723,1.3727,1.3729,1.3731,1.3856,1.3857,0,0,0,0,0,0,1.3355,1.3373,1.3496,1.3502,1.3431,1.3504,1.3517,1.3545,1.361,1.362,1.358,1.3581,1.3674,1.3683,1.3692,1.3739,1.3727,1.3732,1.3734,1.3856,1.3856,1.3857,0,0,0,0,0,0,1.3351,1.3366,1.3492,1.3439,1.3455,1.3508,1.3538,1.3547,1.3568,1.3622,1.3631,1.3592,1.3674,1.3686,1.3732,1.3743,1.3734,1.3738,1.3855,1.3856,1.3857,1.3835,0,0,0,0,0,0,1.3346,1.3364,1.338,1.3439,1.3458,1.3531,1.3539,1.3549,1.3576,1.3579,1.3636,1.3645,1.3674,1.3725,1.3737,1.3749,1.3741,1.3854,1.3855,1.3856,1.3835,1.3835,1.3835,0,0,0,0,0,1.334,1.3369,1.338,1.3395,1.3479,1.3532,1.3543,1.3577,1.3577,1.3593,1.3627,1.3643,1.374,1.373,1.3743,1.3757,1.3854,1.3855,1.3856,1.3835,1.3835,1.3835,0,0,0,0,0,0,1.331,1.3378,1.3391,1.344,1.348,1.3538,1.3559,1.3576,1.3616,1.3617,1.3657,1.3669,1.3712,1.3739,1.3726,1.3796,1.3798,1.3802,1.3777,1.3777,1.3777,1.377,1.3745,0,0,0,0,0,1.3309,1.3347,1.3404,1.3442,1.3461,1.3506,1.3531,1.3554,1.3596,1.3613,1.3651,1.369,1.373,1.3755,1.3795,1.3839,1.3851,1.3855,1.3855,1.3855,1.3858,1.3882,1.3884,1.3862,1.3862,1.3862,0,0,1.3307,1.3349,1.3371,1.3437,1.347,1.3508,1.3521,1.356,1.3588,1.3619,1.3665,1.3694,1.3741,1.3786,1.3808,1.381,1.3867,1.3857,1.3856,1.3859,1.3883,1.3885,1.3887,1.3863,1.3862,1.3862,0,0,1.3323,1.3359,1.3394,1.3427,1.3478,1.3508,1.3516,1.3572,1.3592,1.3639,1.3663,1.3696,1.3764,1.3796,1.3821,1.3848,1.3864,1.3859,1.386,1.3883,1.3884,1.3886,1.3895,1.3898,1.3862,1.3862,1.3862,0,1.3314,1.3373,1.3409,1.3448,1.3475,1.3505,1.354,1.357,1.3631,1.3649,1.3651,1.3736,1.3769,1.3822,1.3828,1.3848,1.3858,1.3853,1.3881,1.3884,1.3886,1.3894,1.3898,1.3861,1.3861,1.3861,1.3862,0,1.3358,1.3399,1.342,1.3479,1.3509,1.3545,1.3586,1.3612,1.3632,1.3661,1.3707,1.3749,1.3797,1.3811,1.3831,1.3866,1.3866,1.3874,1.3876,1.3886,1.3895,1.3899,1.386,1.386,1.3861,1.3861,0,0,1.3359,1.3436,1.3444,1.347,1.3528,1.3559,1.3595,1.3643,1.3664,1.3704,1.3735,1.3791,1.3799,1.3827,1.3851,1.3871,1.3888,1.3877,1.3878,1.3877,1.3928,1.3921,1.3925,1.3899,1.39,1.39,1.3924,0,1.3381,1.345,1.3483,1.3536,1.3573,1.3601,1.3633,1.3671,1.3699,1.3733,1.3764,1.3802,1.381,1.3827,1.3849,1.3881,1.3899,1.388,1.3927,1.3928,1.3914,1.3929,1.3923,1.3943,1.3928,1.3928,1.3929,0,1.3418,1.3458,1.3515,1.3568,1.3584,1.3612,1.3658,1.3691,1.3734,1.3752,1.3784,1.3806,1.3845,1.3844,1.3897,1.3883,1.3904,1.3923,1.3925,1.393,1.3929,1.3934,1.395,1.3953,1.3935,1.3934,1.3934,0,1.341,1.348,1.3522,1.3544,1.3607,1.3625,1.3652,1.3695,1.3721,1.376,1.3777,1.382,1.3843,1.3876,1.3909,1.3906,1.3958,1.396,1.3973,1.3972,1.3983,1.3982,1.4002,1.3997,1.3997,1.3997,1.3997,0,1.3432,1.3466,1.352,1.3546,1.3584,1.3621,1.3657,1.3686,1.3723,1.3755,1.3782,1.381,1.3853,1.3886,1.3912,1.3951,1.3961,1.3977,1.3983,1.3974,1.3972,1.3988,1.3988,1.3998,1.3998,1.3997,1.3997,0,1.3431,1.3469,1.3517,1.3572,1.3587,1.3612,1.3659,1.3684,1.3713,1.3752,1.3764,1.3809,1.3849,1.3886,1.3939,1.3957,1.3996,1.4005,1.3982,1.3985,1.3996,1.3994,1.4027,1.4033,1.4024,1.4024,1.4024,0,1.3442,1.3469,1.3527,1.355,1.3576,1.3613,1.364,1.3677,1.3704,1.3754,1.3773,1.3816,1.3852,1.3916,1.3953,1.3994,1.4003,1.4011,1.4009,1.3999,1.4002,1.4,1.4002,1.4011,1.4011,1.4011,1.4011,0,1.3458,1.3475,1.3513,1.3557,1.3588,1.3624,1.3661,1.3679,1.3722,1.375,1.3793,1.3821,1.3876,1.3917,1.3962,1.3989,1.4007,1.4011,1.4016,1.4007,1.3993,1.4,1.3981,1.401,1.401,1.401,1.401,1.401,1.3463,1.3487,1.3531,1.3572,1.3604,1.3638,1.3665,1.3697,1.3733,1.3781,1.38,1.3843,1.3884,1.3947,1.3973,1.4006,1.4009,1.4017,1.4019,1.402,1.4018,1.3988,1.4014,1.4014,1.4014,1.4014,1.4015,0,1.3479,1.3509,1.3546,1.3597,1.3629,1.3644,1.3685,1.371,1.3748,1.3785,1.382,1.3868,1.3909,1.3948,1.3991,1.4009,1.4019,1.4019,1.4018,1.4023,1.4013,1.4004,1.4011,1.4011,1.4011,1.4011,1.4011,1.4011,1.3491,1.3533,1.3555,1.3612,1.3642,1.3684,1.3707,1.3737,1.3767,1.382,1.3854,1.388,1.3918,1.3963,1.4,1.401,1.4024,1.4023,1.4035,1.4024,1.4024,1.4024,1.4016,1.4025,1.4025,1.4043,1.4043,1.4043]},{"header":{"parameterUnit":"m.s-1","parameterCategory":1,"la1":30.2991,"la2":30.254,"lo1":-89.0895,"lo2":-89.0444,"dy":0.0017,"dx":0.0017,"nx":28,"ny":28,"refTime":"2025-04-15T03:00:00:Z","depth":0,"parameterNumber":3,"parameterNumberName":"V-component_of_WINDS"},"data":[0,0,0,0,0,0,0,0,0,0,0,0,0,0,0,0,0,0,0,0,0,0,0,0,0,0,0,0,0,0,0,0,0,0,0,0,0,0,0,0,0,0,0,0,0,0,0,0,0,0,0,0,0,0,0,0,0,0,2.911,2.9109,0,2.9088,2.9087,2.9087,2.9026,2.9025,2.9023,2.9022,2.8999,2.8999,2.9,0,0,0,0,0,0,0,0,0,0,0,0,0,2.9097,2.9098,2.911,2.9109,2.9109,2.9088,2.9087,2.9087,2.9026,2.9024,2.9023,2.9021,2.8998,2.8999,2.9,0,0,0,0,0,0,0,0,0,0,0,0,0,2.9092,2.9098,2.911,2.9076,2.9073,2.9088,2.9087,2.9087,2.9026,2.9024,2.9022,2.9021,2.8998,2.8999,2.9,2.9045,0,0,2.9003,2.9003,0,0,0,0,0,0,0,0,2.9092,2.9092,2.9081,2.9079,2.9075,2.9057,2.9074,2.9073,2.9027,2.9044,2.9022,2.902,2.902,2.9019,2.9019,2.9044,2.9043,2.9003,2.9003,2.9004,2.9004,0,0,0,0,0,0,0,2.9093,2.9093,2.9101,2.9081,2.9077,2.9062,2.9059,2.9074,2.9043,2.9042,2.9038,2.9036,2.9018,2.9018,2.9018,2.9043,2.9003,2.9004,2.9004,2.9005,2.9101,2.9103,0,0,0,0,0,0,2.9098,2.9094,2.9102,2.91,2.9079,2.9063,2.906,2.9065,2.9043,2.9038,2.9038,2.9033,2.9018,2.9017,2.9017,2.9066,2.9004,2.9005,2.9005,2.9099,2.9102,2.9104,0,0,0,0,0,0,2.9098,2.9099,2.9103,2.9096,2.9095,2.9066,2.9072,2.9066,2.9066,2.904,2.9034,2.9044,2.9016,2.9016,2.9038,2.9064,2.9005,2.9006,2.9097,2.91,2.9103,2.9167,0,0,0,0,0,0,2.9098,2.91,2.9117,2.9097,2.9096,2.9125,2.9074,2.9067,2.9068,2.9062,2.9044,2.9039,2.9014,2.9037,2.9039,2.9065,2.9007,2.9094,2.9098,2.9102,2.9162,2.9171,2.9179,0,0,0,0,0,2.9098,2.9136,2.9118,2.912,2.9117,2.9127,2.9126,2.9097,2.9071,2.9087,2.907,2.904,2.9062,2.904,2.9042,2.9068,2.9092,2.9097,2.9101,2.9158,2.917,2.9179,0,0,0,0,0,0,2.9161,2.9133,2.9113,2.9146,2.9139,2.9116,2.9136,2.9111,2.9111,2.9105,2.9069,2.9066,2.9092,2.9083,2.9059,2.9109,2.9072,2.9077,2.9114,2.9125,2.9134,2.9135,2.9007,0,0,0,0,0,2.9179,2.919,2.9165,2.9197,2.9194,2.9166,2.9169,2.9148,2.9139,2.9135,2.912,2.9112,2.9117,2.9121,2.9124,2.9161,2.9154,2.918,2.9188,2.9196,2.92,2.9216,2.9226,2.9119,2.9119,2.9119,0,0,2.9216,2.9202,2.9211,2.9209,2.9201,2.9212,2.9164,2.9178,2.9185,2.9137,2.9157,2.9145,2.9134,2.9163,2.9175,2.9156,2.9228,2.9202,2.9208,2.9208,2.9222,2.9232,2.9241,2.9122,2.9121,2.9121,0,0,2.9288,2.928,2.9304,2.9297,2.9285,2.9266,2.9272,2.9253,2.9243,2.9262,2.9226,2.9234,2.9244,2.9236,2.9234,2.9302,2.9274,2.9305,2.935,2.9366,2.9374,2.9381,2.9403,2.9412,2.9309,2.9309,2.9309,0,2.9336,2.9351,2.932,2.9336,2.9335,2.9292,2.9316,2.931,2.93,2.93,2.9279,2.9289,2.9278,2.9304,2.932,2.9321,2.9325,2.9305,2.9375,2.9382,2.9389,2.9409,2.9418,2.9313,2.9313,2.9312,2.9312,0,2.9408,2.942,2.9441,2.9431,2.9433,2.9453,2.9424,2.9429,2.9407,2.939,2.9409,2.9395,2.9393,2.9398,2.9378,2.942,2.9408,2.9382,2.9343,2.9403,2.9421,2.9429,2.9318,2.9317,2.9316,2.9315,0,0,2.952,2.9492,2.95,2.9494,2.9478,2.9485,2.9503,2.9501,2.9505,2.95,2.9511,2.952,2.9495,2.9492,2.947,2.9485,2.9536,2.9456,2.9455,2.9469,2.9579,2.9598,2.9607,2.9518,2.9519,2.9521,2.9579,0,2.9586,2.9613,2.9585,2.9618,2.9626,2.9586,2.96,2.9591,2.9575,2.958,2.9562,2.9568,2.9536,2.9533,2.9546,2.9528,2.9558,2.9523,2.9527,2.9527,2.9529,2.9617,2.9637,2.9693,2.9587,2.9588,2.9589,0,2.9667,2.9664,2.9697,2.9677,2.9679,2.9693,2.9688,2.9693,2.9681,2.9669,2.9665,2.9638,2.9652,2.9616,2.9633,2.961,2.961,2.9601,2.9603,2.96,2.956,2.9615,2.9711,2.9718,2.96,2.9599,2.9599,0,2.9741,2.9746,2.9766,2.9763,2.974,2.975,2.9741,2.9727,2.9727,2.9723,2.9722,2.972,2.9718,2.9716,2.9689,2.9666,2.9709,2.9671,2.9697,2.9698,2.9706,2.9706,2.9801,2.9711,2.971,2.971,2.971,0,2.9817,2.9838,2.9799,2.9811,2.9833,2.9801,2.9823,2.981,2.9798,2.9805,2.9771,2.9779,2.9743,2.9747,2.9725,2.9741,2.9742,2.973,2.9724,2.9732,2.9733,2.973,2.9724,2.9712,2.9712,2.9712,2.9711,0,2.9903,2.9878,2.9896,2.9873,2.9867,2.9884,2.9864,2.9873,2.9855,2.9865,2.9866,2.9837,2.9839,2.9812,2.981,2.9795,2.982,2.9808,2.9824,2.9819,2.9845,2.9842,2.994,2.995,2.9856,2.9857,2.9858,0,2.9951,2.9967,2.9944,2.9947,2.9939,2.9945,2.9944,2.9913,2.9913,2.99,2.9911,2.991,2.9908,2.9914,2.9892,2.9889,2.9875,2.991,2.9874,2.9881,2.9872,2.9871,2.9871,2.9917,2.9918,2.9919,2.992,0,3.0039,3.0026,3.0027,3.0023,3.0023,3.0019,3.0012,3.0016,2.9982,2.9984,2.9986,2.9984,2.9981,2.998,2.9973,2.9962,2.9934,2.9931,2.9936,2.9944,2.9951,2.9945,2.9841,2.9928,2.9928,2.9927,2.9926,2.9926,3.0106,3.0117,3.0102,3.0104,3.0095,3.0089,3.0096,3.0079,3.008,3.0075,3.0056,3.0061,3.0046,3.0034,3.0026,3.0028,3.0011,3.0019,3.0021,3.0023,3.0027,2.9953,3.0027,3.0027,3.0026,3.0026,3.0026,0,3.019,3.0179,3.0181,3.0171,3.0172,3.0147,3.0138,3.014,3.0144,3.0133,3.0132,3.0133,3.0131,3.0109,3.0105,3.0111,3.0098,3.0111,3.0108,3.0106,3.0044,3.0038,3.0121,3.0121,3.0121,3.0121,3.0121,3.0121,3.0234,3.025,3.0234,3.0245,3.0233,3.0237,3.0233,3.0227,3.0218,3.0221,3.0219,3.0205,3.0189,3.0183,3.018,3.0174,3.0173,3.0189,3.0178,3.012,3.0111,3.0102,3.0096,3.019,3.019,3.024,3.024,3.0241]}]]